Stations météo

réclame
Mon MeteoGroup
Trapani/Birgi, Italie (16429): Température de l'air & dewpoint: 13.10.2018 11:00:00 - 19.10.2018 11:00:00 (CEST)Trapani/Birgi, Italie (16429): Vitesse du vent: 13.10.2018 11:00:00 - 19.10.2018 11:00:00 (CEST)Trapani/Birgi, Italie (16429): Direction du vent: 13.10.2018 11:00:00 - 19.10.2018 11:00:00 (CEST)Trapani/Birgi, Italie (16429): reduced air pressure: 13.10.2018 11:00:00 - 19.10.2018 11:00:00 (CEST)Trapani/Birgi, Italie (16429): visibility: 13.10.2018 11:00:00 - 19.10.2018 11:00:00 (CEST)Trapani/Birgi, Italie (16429): Ensoleillement: 13.10.2018 11:00:00 - 19.10.2018 11:00:00 (CEST)
Date & Time tt [°C] td [°C] ff [km/h] ff [knt] dd ppp [hPa] vv [km] sd [min]
19.10.2018 11:00:00 22,4 16,0 8 4 S 1012,2 20 60
19.10.2018 10:00:00 20,0 14,8 9 5 S 1011,9 20 42
19.10.2018 09:00:00 16,6 14,2 5 3 E 1011,1 10 42
19.10.2018 08:00:00 15,2 13,2 9 5 SE 1010,7 10 0
19.10.2018 07:00:00 15,0 13,2 8 4 ESE 1010,1 12 -
19.10.2018 06:00:00 15,4 13,4 9 5 SE 1010,1 12 -
19.10.2018 05:00:00 16,0 13,7 4 2 N 1010,0 12 -
19.10.2018 04:00:00 16,0 13,3 5 3 ENE 1010,0 12 -
19.10.2018 03:00:00 15,2 12,9 8 4 NNE 1009,9 12 -
19.10.2018 02:00:00 15,4 13,3 8 4 NNE 1008,7 12 -
19.10.2018 01:00:00 16,2 13,3 5 3 NE 1009,1 10 -
19.10.2018 00:00:00 16,2 12,6 4 2 E 1010,1 12 -
18.10.2018 23:00:00 16,0 13,1 9 5 ENE 1009,1 12 -
18.10.2018 22:00:00 17,6 12,5 9 5 ESE 1008,4 12 -
18.10.2018 21:00:00 17,2 12,9 13 7 E 1008,4 12 -
18.10.2018 20:00:00 17,0 13,0 15 8 E 1008,5 12 -
18.10.2018 19:00:00 17,0 13,5 15 8 E 1008,5 12 -
18.10.2018 18:00:00 16,2 14,2 24 13 ESE 1008,1 12 0
18.10.2018 17:00:00 16,4 14,8 13 7 SE 1008,1 6 0
18.10.2018 16:00:00 19,0 17,3 22 12 N 1007,1 6 0
18.10.2018 15:00:00 19,0 17,8 24 13 N 1008,1 5 0
18.10.2018 14:00:00 20,0 19,0 18 10 N 1008,2 7 0
18.10.2018 13:00:00 20,0 19,0 24 13 N 1009,8 6 0
18.10.2018 12:00:00 20,6 17,0 22 12 NNW 1009,9 12 0
18.10.2018 11:00:00 23,8 16,1 9 5 E 1009,1 12 0
18.10.2018 10:00:00 23,6 14,9 26 14 ESE 1008,4 16 0
18.10.2018 09:00:00 23,0 14,3 18 10 E 1008,1 16 0
18.10.2018 08:00:00 19,6 14,6 21 11 ESE 1007,5 16 0
18.10.2018 07:00:00 18,0 15,6 5 3 ENE 1008,3 15 -
18.10.2018 06:00:00 18,0 15,4 8 4 E 1008,1 10 -
18.10.2018 05:00:00 19,0 15,5 4 2 ENE 1008,1 15 -
18.10.2018 04:00:00 19,2 15,3 4 2 NE 1008,1 15 -
18.10.2018 03:00:00 20,0 16,0 11 6 ENE 1008,3 15 -
18.10.2018 02:00:00 20,0 17,8 11 6 ENE 1009,3 15 -
18.10.2018 01:00:00 20,0 18,0 5 3 ESE 1010,4 15 -
18.10.2018 00:00:00 20,0 18,5 5 3 ENE 1011,0 10 -
17.10.2018 23:00:00 20,2 19,0 9 5 E 1011,6 15 -
17.10.2018 22:00:00 20,6 19,2 5 3 SSE 1011,9 15 -
17.10.2018 21:00:00 22,0 20,3 4 2 N 1011,6 15 -
17.10.2018 20:00:00 22,0 19,6 5 3 SW 1011,7 15 -
17.10.2018 19:00:00 23,0 19,4 4 2 N 1011,3 14 -
17.10.2018 18:00:00 23,4 18,7 4 2 N 1011,3 14 -
17.10.2018 17:00:00 24,0 18,9 13 7 N 1012,1 14 18
17.10.2018 16:00:00 24,2 19,9 13 7 NNW 1012,2 16 60
17.10.2018 15:00:00 24,0 19,9 18 10 NNW 1013,0 18 48
17.10.2018 14:00:00 24,0 19,9 13 7 NNW 1013,1 18 18
17.10.2018 13:00:00 25,6 18,8 15 8 SSE 1014,2 18 54
17.10.2018 12:00:00 25,0 18,2 15 8 SE 1014,4 18 60
17.10.2018 11:00:00 24,4 15,1 13 7 ESE 1014,5 18 54
17.10.2018 10:00:00 22,6 16,4 4 2 N 1014,5 18 42
17.10.2018 09:00:00 20,0 15,9 4 2 N 1014,6 18 6
17.10.2018 08:00:00 19,4 17,0 4 2 N 1014,6 16 0
17.10.2018 07:00:00 20,0 16,4 4 2 SW 1014,6 12 -
17.10.2018 06:00:00 20,0 16,4 11 6 ESE 1014,2 12 -
17.10.2018 05:00:00 20,0 18,1 11 6 E 1014,9 12 -
17.10.2018 04:00:00 20,2 17,8 18 10 ESE 1016,1 12 -
17.10.2018 03:00:00 20,2 17,6 16 9 ESE 1016,2 12 -
17.10.2018 02:00:00 20,4 18,4 13 7 SE 1016,2 12 -
17.10.2018 01:00:00 20,8 19,1 16 9 SE 1016,4 12 -
17.10.2018 00:00:00 21,0 19,1 5 3 ESE 1016,6 12 -
16.10.2018 23:00:00 21,0 18,9 16 9 ESE 1016,4 12 -
16.10.2018 22:00:00 21,2 21,2 9 5 ESE 1017,3 12 -
16.10.2018 21:00:00 21,4 19,7 15 8 SE 1016,0 12 -
16.10.2018 20:00:00 22,0 20,1 21 11 SE 1015,9 12 -
16.10.2018 19:00:00 22,4 20,1 18 10 SE 1015,6 15 -
16.10.2018 18:00:00 23,2 20,5 24 13 SE 1015,3 18 0
16.10.2018 17:00:00 23,8 20,5 29 16 SE 1015,2 18 0
16.10.2018 16:00:00 23,8 20,3 31 17 SE 1015,2 18 6
16.10.2018 15:00:00 24,0 19,9 35 19 SSE 1015,1 18 0
16.10.2018 14:00:00 24,2 19,5 34 18 SE 1015,1 18 12
16.10.2018 13:00:00 25,0 20,0 34 18 SE 1015,4 10 18
16.10.2018 12:00:00 24,2 19,3 35 19 SE 1015,9 18 60
16.10.2018 11:00:00 23,8 19,1 34 18 SSE 1015,6 18 60
16.10.2018 10:00:00 22,2 18,0 29 16 SE 1015,2 18 48
16.10.2018 09:00:00 21,0 17,4 21 11 ESE 1015,0 18 18
16.10.2018 08:00:00 19,8 16,4 15 8 ESE 1014,9 18 0
16.10.2018 07:00:00 19,4 15,9 18 10 ESE 1014,5 12 -
16.10.2018 06:00:00 19,2 15,7 16 9 ESE 1014,3 12 -
16.10.2018 05:00:00 18,8 15,7 15 8 ESE 1014,5 12 -
16.10.2018 04:00:00 19,0 16,4 13 7 SE 1014,9 12 -
16.10.2018 03:00:00 19,0 17,2 15 8 SE 1015,1 12 -
16.10.2018 02:00:00 19,0 17,2 13 7 ESE 1015,1 12 -
16.10.2018 01:00:00 19,0 17,3 11 6 SE 1015,1 12 -
16.10.2018 00:00:00 19,0 17,3 11 6 ESE 1015,2 12 -
15.10.2018 23:00:00 19,8 18,1 9 5 ESE 1015,2 12 -
15.10.2018 22:00:00 19,6 17,9 8 4 ESE 1015,1 12 -
15.10.2018 21:00:00 20,0 18,3 8 4 SE 1015,0 15 -
15.10.2018 20:00:00 20,2 18,7 5 3 ESE 1014,1 15 -
15.10.2018 19:00:00 22,0 19,9 2 1 NE 1013,8 18 -
15.10.2018 18:00:00 22,6 20,0 5 3 WNW 1013,2 22 48
15.10.2018 17:00:00 23,0 19,2 9 5 NW 1013,1 22 60
15.10.2018 16:00:00 23,2 19,0 11 6 NNW 1012,7 22 60
15.10.2018 15:00:00 22,6 18,6 13 7 NNW 1012,6 22 60
15.10.2018 14:00:00 22,4 18,2 15 8 NNW 1012,9 22 60
15.10.2018 13:00:00 22,6 17,5 13 7 NW 1013,2 22 60
15.10.2018 12:00:00 22,4 18,2 9 5 NW 1013,3 22 60
15.10.2018 11:00:00 22,6 18,4 4 2 NNE 1013,1 22 60
15.10.2018 10:00:00 21,6 18,2 2 1 SE 1012,8 22 30
15.10.2018 09:00:00 18,4 16,4 8 4 E 1012,4 20 6
15.10.2018 08:00:00 16,0 14,2 2 1 E 1012,1 16 0
15.10.2018 07:00:00 16,0 14,2 8 4 ESE 1011,6 12 -
15.10.2018 06:00:00 16,0 14,2 5 3 E 1011,4 10 -
15.10.2018 05:00:00 16,0 14,2 5 3 SE 1011,5 12 -
15.10.2018 04:00:00 16,4 13,0 5 3 SE 1012,1 12 -
15.10.2018 03:00:00 16,4 13,0 4 2 N 1012,0 12 -
15.10.2018 02:00:00 18,6 16,4 0 0 N 1012,3 12 -
15.10.2018 01:00:00 18,6 16,6 4 2 N 1012,3 12 -
15.10.2018 00:00:00 19,0 16,8 4 2 N 1012,8 12 -
14.10.2018 23:00:00 18,0 16,0 4 2 N 1013,1 12 -
14.10.2018 22:00:00 18,0 15,8 4 2 N 1013,1 12 -
14.10.2018 21:00:00 19,0 16,2 4 2 N 1012,5 12 -
14.10.2018 20:00:00 20,0 16,0 4 2 N 1013,0 16 -
14.10.2018 19:00:00 22,0 15,8 11 6 ESE 1012,4 18 -
14.10.2018 18:00:00 23,4 17,2 9 5 E 1012,3 20 6
14.10.2018 17:00:00 23,8 16,8 5 3 E 1012,3 20 0
14.10.2018 16:00:00 23,8 17,5 8 4 NNW 1012,8 20 0
14.10.2018 15:00:00 23,8 17,5 9 5 NW 1013,1 20 12
14.10.2018 14:00:00 24,2 17,0 8 4 N 1014,1 20 0
14.10.2018 13:00:00 24,0 15,8 4 2 N 1015,1 20 24
14.10.2018 12:00:00 23,8 16,1 8 4 ENE 1015,3 20 30
14.10.2018 11:00:00 22,8 16,4 5 3 ENE 1015,9 18 54
14.10.2018 10:00:00 21,2 16,6 4 2 N 1015,9 18 12
14.10.2018 09:00:00 18,0 16,0 5 3 E 1015,9 18 0
14.10.2018 08:00:00 16,8 14,8 4 2 NNE 1016,0 15 -
14.10.2018 07:00:00 16,2 14,7 4 2 N 1016,0 12 -
14.10.2018 06:00:00 16,6 15,0 4 2 N 1016,0 12 -
14.10.2018 05:00:00 17,0 15,0 4 2 NNW 1016,2 12 -
14.10.2018 04:00:00 17,4 14,9 4 2 N 1017,1 12 -
14.10.2018 03:00:00 17,8 14,9 8 4 ESE 1017,6 12 -
14.10.2018 02:00:00 17,8 15,1 9 5 SE 1018,1 12 -
14.10.2018 01:00:00 18,0 14,9 8 4 SE 1018,1 12 -
14.10.2018 00:00:00 19,0 16,2 8 4 E 1018,4 12 -
13.10.2018 23:00:00 19,0 17,1 4 2 N 1018,7 12 -
13.10.2018 22:00:00 19,0 16,8 4 2 N 1018,8 12 -
13.10.2018 21:00:00 19,4 17,4 4 2 N 1018,6 12 -
13.10.2018 20:00:00 20,4 18,0 4 2 N 1018,4 12 -
13.10.2018 19:00:00 20,6 18,5 5 3 NNE 1018,5 12 -
13.10.2018 18:00:00 21,2 18,2 9 5 NNE 1018,3 14 0
13.10.2018 17:00:00 22,0 18,4 4 2 N 1018,4 14 0
13.10.2018 16:00:00 22,8 16,4 15 8 SSE 1018,6 16 24
13.10.2018 15:00:00 24,2 17,0 22 12 SE 1018,7 16 48
13.10.2018 14:00:00 24,2 17,2 21 11 SSE 1019,1 16 42
13.10.2018 13:00:00 24,0 15,8 16 9 SE 1019,9 10 30
13.10.2018 12:00:00 23,4 15,7 16 9 SE 1020,1 16 0
13.10.2018 11:00:00 22,2 16,7 9 5 ESE 1020,1 16 0

tt = Température de l'air
td = dewpoint
ff = Vitesse du vent
dd = Direction du vent
ppp = reduced air pressure
vv = visibility
sd = Ensoleillement

stations d'obs. à proximité